Preview of NWS' New Version of Forecast
This preview is not operational and should not be used for support decisions.

Regional Weather Roundup (RWR)

Issued by National Weather Service (NWS)

                            
000
ASUS45 KABQ 230201
RWRNM 
NEW MEXICO REGIONAL WEATHER ROUNDUP
NATIONAL WEATHER SERVICE ALBUQUERQUE NM
800 PM MDT MON JUL 22 2019

NOTE: "FAIR" MEANS FEW OR NO CLOUDS BELOW 12,000 FEET AGL WITH NO
       SIGNIFICANT WEATHER OR OBSTRUCTIONS TO VISION.

      THIS PRODUCT IS RELEASED AS TWO VERSIONS.  ONE VERSION NEAR
      THE TOP OF THE HOUR CONTAINING PRELIMINARY DATA FROM ALBUQUERQUE
      AND OTHER STATIONS.  A FINAL VERSION WITH ADDITIONAL DATA IS 
      ISSUED ABOUT 10 MINUTES AFTER THE HOUR.
 
NMZ501-503-504-510>518-230300-
NORTHWEST PLATEAU/NORTHCENTRAL MOUNTAINS
  
CITY           SKY/WX    TMP DP  RH WIND       PRES   REMARKS
FARMINGTON     FAIR      83  44  25 E21       30.22S                  
LOS ALAMOS       N/A     63  51  65 W16G22    30.46F                  
SANTA FE       CLOUDY    71  51  49 NE14      30.41R                  

$$
NMZ402-403-502-505>509-230300-
WESTCENTRAL MOUNTAINS/SOUTHWEST MOUNTAINS
  
CITY           SKY/WX    TMP DP  RH WIND       PRES   REMARKS
GALLUP         FAIR      79  43  27 SE9       30.30R                  
GRANTS         CLOUDY    64  54  69 S14       30.38F                  
SILVER CITY    FAIR      71  63  77 NW7       30.27S                  

$$
NMZ407-409-411-412-230300-
SOUTHERN DESERTS
  
CITY           SKY/WX    TMP DP  RH WIND       PRES   REMARKS
DEMING         FAIR      88  50  27 E9        30.15R                  
LAS CRUCES     FAIR      86  48  27 E9        30.18S                  
ALAMOGORDO     FAIR      81  59  47 NE6       30.17S                  
T OR C         FAIR      84  55  36 SW3       30.20R                  

$$
NMZ519>523-230300-
CENTRAL VALLEYS/CENTRAL HIGHLANDS
  
CITY           SKY/WX    TMP DP  RH WIND       PRES   REMARKS
ALBUQUERQUE    MOCLDY    81  54  39 E23G29    30.28R                  
DOUBLE EAGLE   MOCLDY    79  54  41 E15G24    30.32R                  
CLINES CORNERS FAIR      66  52  60 E12       30.47R                  
BELEN          FAIR      82  49  32 SE15G23   30.28R                  
SOCORRO        FAIR      83  52  34 E15G22    30.24R                  

$$
NMZ524>526-539-540-230300-
SOUTHCENTRAL MOUNTAINS
  
CITY           SKY/WX    TMP DP  RH WIND       PRES   REMARKS
RUIDOSO          N/A     66  57  72 E12       30.44S                  

$$
NMZ527>531-230300-
NORTHEAST HIGHLANDS/NORTHEAST PLAINS
  
CITY           SKY/WX    TMP DP  RH WIND       PRES   REMARKS
LAS VEGAS      MOCLDY    66  51  58 SE9       30.46R                  
RATON          LGT RAIN  67  59  75 S13       30.43R                  
CLAYTON        FAIR      70  58  65 E7        30.36R                  

$$
NMZ532>537-230300-
EASTCENTRAL PLAINS
  
CITY           SKY/WX    TMP DP  RH WIND       PRES   REMARKS
SANTA ROSA     FAIR      80  57  46 SE7       30.33R                  
TUCUMCARI      CLOUDY    78  61  55 E5        30.26R                  
CANNON AFB     CLOUDY    77  57  50 E12       30.30R                  
CLOVIS AIRPORT MOCLDY    77  57  50 NE9       30.29R                  

$$
NMZ028-029-538-230300-
SOUTHEAST PLAINS
  
CITY           SKY/WX    TMP DP  RH WIND       PRES   REMARKS
ROSWELL        FAIR      74  63  68 S10       30.23F                  
ARTESIA        FAIR      73  63  68 S3        30.22S                  
CARLSBAD       FAIR      68  65  90 N5        30.18S                  


$$